CAPE
2 0 0 0 0 0 0 0 0 0 0 0 0 0 0 0 0 0 0 0 0 0 0 0 0 0 0 0 0 0 0 0 0 0 0 0 0 0 0 0 0 0 0 0
0 0 0 0 0 0 0 0 0 0 0 0 0 0 0 0 0 0 0 0 0 0 0 0 0 0 0 0 0 0 0 0 0 0 0 0 0 0 0 0 0 0 0 0
0 1 0 0 0 0 0 0 0 0 0 0 0 0 0 0 0 0 0 0 0 0 0 0 0 0 0 0 0 0 0 0 0 0 0 0 0 0 0 0 0 0 0 0
1 1 1 0 0 0 0 0 0 0 0 0 0 0 0 0 0 0 0 0 0 0 0 0 0 0 0 0 0 0 0 0 0 0 0 0 0 0 0 0 0 0 0 0
1 1 0 0 0 0 0 0 0 0 0 0 0 0 0 0 0 0 0 0 0 0 0 0 0 0 0 0 0 0 0 0 0 0 0 0 0 0 0 0 0 0 0 0
1 1 1 1 0 0 0 0 0 0 0 0 0 0 0 0 0 0 0 0 0 0 0 0 0 0 0 0 0 0 0 0 0 0 0 0 0 0 0 0 0 0 0 0
14 1 1 1 1 0 0 0 0 0 0 0 0 0 0 0 0 0 0 0 0 0 0 0 0 0 0 0 0 0 0 0 0 0 0 0 0 0 0 0 0 0 0 0
2 13 6 1 1 0 0 0 0 0 0 0 0 0 0 0 0 0 0 0 0 0 0 0 0 0 0 0 0 0 0 0 0 0 0 0 0 0 0 0 0 0 0 0
2 0 6 9 2 1 0 0 0 0 1 0 0 0 0 0 0 0 0 0 0 0 0 0 0 0 0 0 0 0 0 0 0 0 0 0 0 0 0 0 0 0 0 0
1 1 1 10 14 7 3 0 0 1 12 1 0 0 0 0 0 0 0 0 0 0 0 0 0 0 0 0 0 0 0 0 0 0 0 0 0 0 0 0 0 0 0 0
0 1 1 1 22 11 3 0 0 1 12 1 0 0 0 1 1 0 0 0 0 0 0 0 0 0 0 0 0 0 0 0 0 0 0 0 0 0 0 0 0 0 0 0
3 4 3 0 8 9 22 0 1 12 12 0 0 0 0 0 0 0 0 0 0 0 0 0 0 3 0 0 0 0 0 0 0 0 0 0 0 0 0 0 0 0 0 0
3 4 3 1 5 16 23 10 4 16 14 0 0 0 0 0 0 0 2 0 0 0 0 0 0 0 0 0 0 0 0 0 0 0 2 0 0 0 0 0 0 0 0 0
3 6 3 0 9 18 18 11 15 17 29 6 0 0 0 0 0 0 0 0 0 0 0 0 0 3 0 0 0 2 0 0 0 2 48 52 3 4 2 0 0 0 0 0
3 5 3 0 7 13 10 6 2 4 4 3 0 0 0 0 0 0 0 0 0 0 0 0 0 2 0 0 0 0 2 5 7 4 34 7 17 15 3 0 0 0 0 0
6 6 1 0 12 14 8 6 4 4 7 5 1 0 0 0 0 0 0 0 0 0 3 1 0 0 0 0 0 0 0 0 0 0 41 36 44 40 12 0 0 0 0 0
11 5 3 10 20 13 0 0 1 0 2 14 4 0 0 0 0 0 0 2 0 5 18 3 0 0 0 0 0 0 0 0 0 7 64 57 63 34 1 0 0 0 0 0
15 5 19 18 10 6 0 0 0 0 7 27 0 0 0 0 2 0 0 0 5 3 12 0 0 0 0 0 0 0 0 1 1 71 10 10 16 15 0 0 2 12 3 1
7 25 11 0 0 0 0 0 0 0 2 18 20 0 0 0 8 0 0 0 0 1 0 0 0 0 0 0 0 0 0 7 86 72 36 24 0 0 0 0 3 0 0 6
17 5 1 0 0 0 3 16 4 6 6 1 1 0 0 0 0 8 7 16 6 0 0 0 0 0 0 0 0 0 0 0 5 112 73 48 23 6 9 0 1 7 0 0
5 1 1 0 0 2 6 22 7 6 2 0 0 0 0 0 0 8 3 3 1 12 0 0 0 0 0 0 0 0 0 0 0 0 75 108 54 27 43 50 44 45 3 0
5 10 0 0 0 2 2 5 8 2 0 0 0 0 0 0 0 7 1 6 1 0 0 4 1 0 0 0 0 0 0 0 0 0 3 141 154 84 99 84 88 35 6 0
9 6 3 1 0 0 1 0 1 10 29 24 11 1 0 0 3 14 3 2 6 0 1 0 0 0 0 0 0 0 0 0 0 0 0 0 20 127 130 143 123 91 18 0
1 1 0 0 1 0 3 0 4 3 0 8 9 2 3 31 17 18 22 6 4 7 2 0 0 1 0 0 0 3 0 0 0 0 0 0 31 83 174 177 137 113 80 11
0 6 0 0 0 0 0 0 20 28 2 0 0 4 2 11 13 5 0 16 0 0 0 1 15 11 10 26 5 0 0 1 0 0 0 0 0 78 168 205 196 174 98 41
0 0 0 0 0 0 0 0 0 4 9 1 2 8 5 9 0 5 1 5 4 8 7 2 0 9 1 1 15 64 23 2 5 0 0 0 0 0 15 16 8 41 110 139
2 0 0 0 0 0 0 0 0 5 5 8 14 21 0 0 2 0 0 3 14 5 13 2 0 7 0 4 15 32 66 71 21 14 9 0 0 0 0 0 0 0 5 56
CIN
-6 -1 -0 -0 -0 -0 -0 -0 -0 -0 -0 -0 -0 -0 -0 -0 -0 -0 -0 -0 -0 -0 -0 -0 -0 -0 -0 -0 -0 -0 -0 -0 -0 -0 -0 -0 -0 -0 -0 -0 -0 -0 -0 -0
-3 -0 -0 -0 -0 -0 -0 -0 -0 -0 -0 -0 -0 -0 -0 -0 -0 -0 -0 -0 -0 -0 -0 -0 -0 -0 -0 -0 -0 -0 -0 -0 -0 -0 -0 -0 -0 -0 -0 -0 -0 -0 -0 -0
-0 -0 -0 -0 -0 -0 -0 -0 -0 -0 -0 -0 -0 -0 -0 -0 -0 -0 -0 -0 -0 -0 -0 -0 -0 -0 -0 -0 -0 -0 -0 -0 -0 -0 -0 -0 -0 -0 -0 -0 -0 -0 -0 -0
-0 -0 -0 -0 -0 -0 -0 -0 -0 -0 -0 -0 -0 -0 -0 -0 -0 -0 -0 -0 -0 -0 -0 -0 -0 -0 -0 -0 -0 -0 -0 -0 -0 -0 -0 -0 -0 -0 -0 -0 -0 -0 -0 -0
-0 -0 -0 -0 -0 -0 -0 -0 -0 -0 -0 -0 -0 -0 -0 -0 -0 -0 -0 -0 -0 -0 -0 -0 -0 -0 -0 -0 -0 -0 -0 -0 -0 -0 -0 -0 -0 -0 -0 -0 -0 -0 -0 -0
-0 -0 -0 -0 -0 -0 -0 -0 -0 -0 -0 -0 -0 -0 -0 -0 -0 -0 -0 -0 -0 -0 -0 -0 -0 -0 -0 -0 -0 -0 -0 -0 -0 -0 -0 -0 -0 -0 -0 -0 -0 -0 -0 -0
-3 -0 -0 -0 -1 -0 -0 -0 -0 -0 -0 -0 -0 -0 -0 -0 -0 -0 -0 -0 -0 -0 -0 -0 -0 -0 -0 -0 -0 -0 -0 -0 -0 -0 -0 -0 -0 -0 -0 -0 -0 -0 -0 -0
-8 -2 -3 -1 -0 -0 -0 -0 -0 -0 -0 -0 -0 -0 -0 -0 -0 -0 -0 -0 -0 -0 -0 -0 -0 -0 -0 -0 -0 -0 -0 -0 -0 -0 -0 -0 -0 -0 -0 -0 -0 -0 -0 -0
-1 -0 -9 -1 -1 -1 -0 -0 -0 -0 -0 -0 -0 -0 -0 -0 -0 -0 -0 -0 -0 -0 -0 -0 -0 -0 -0 -0 -0 -0 -0 -0 -0 -0 -0 -0 -0 -0 -0 -0 -0 -0 -0 -0
-0 -0 -3 -7 -4 -2 -0 -0 -0 -1 -0 -2 -0 -0 -0 -0 -0 -0 -0 -0 -0 -0 -0 -0 -0 -2 -0 -0 -0 -0 -0 -0 -0 -0 -0 -0 -0 -0 -0 -0 -0 -0 -0 -0
-1 -0 -0 -0 -0 -2 -2 -0 -0 -0 -0 -1 -0 -0 -0 -0 -0 -0 -0 -0 -0 -0 -6 -0 -0 -0 -0 -0 -0 -0 -0 -0 -0 -0 -0 -0 -0 -0 -0 -0 -0 -0 -0 -0
-0 -0 -0 -0 -6 -2 -0 -3 -2 -2 -1 -0 -0 -0 -0 -0 -0 -0 -0 -0 -0 -0 -0 -0 -0 -97 -0 -0 -0 -0 -0 -0 -0 -0 -0 -0 -0 -0 -0 -0 -0 -0 -0 -0
-2 -1 -3 -0 -10 -2 -0 -4 -17 -6 -2 -0 -0 -0 -0 -0 -0 -0 -0 -0 -0 -0 -0 -0 -0 -0 -0 -0 -0 -0 -0 -0 -0 -6 -101 -0 -0 -0 -0 -0 -0 -0 -0 -0
-5 -3 -2 -0 -16 -6 -1 -3 -10 -0 -0 -0 -0 -0 -0 -0 -0 -0 -0 -0 -0 -0 -0 -0 -0 -95 -0 -0 -0 -89 -0 -39 -0 -69 -236 -251 -242 -272 -165 -0 -0 -0 -0 -0
-9 -8 -5 -0 -20 -7 -12 -17 -11 -21 -0 -0 -0 -0 -0 -0 -0 -0 -0 -0 -0 -0 -0 -0 -0 -53 -0 -0 -0 -0 -254 -169 -83 -76 -136 -117 -156 -246 -301 -0 -0 -0 -0 -0
-7 -10 -8 -0 -8 -9 -11 -1 -13 -33 -6 -3 -0 -0 -0 -0 -0 -0 -0 -0 -0 -0 -8 -3 -0 -0 -0 -0 -0 -0 -0 -0 -0 -7 -204 -255 -289 -310 -290 -0 -0 -0 -0 -0
-9 -12 -11 -13 -2 -10 -1 -2 -8 -0 -0 -1 -3 -0 -0 -0 -0 -0 -0 -1 -0 -8 -5 -4 -0 -0 -0 -0 -0 -0 -0 -0 -0 -281 -189 -208 -237 -199 -152 -0 -0 -0 -0 -0
-2 -14 -6 -3 -9 -19 -0 -0 -0 -0 -0 -1 -0 -0 -0 -0 -10 -0 -0 -0 -6 -1 -8 -7 -0 -0 -0 -0 -0 -0 -0 -51 -43 -167 -175 -169 -255 -313 -0 -0 -123 -194 -162 -117
-10 -0 -7 -6 -0 -1 -0 -0 -0 -0 -11 -0 -0 -0 -55 -0 -35 -6 -0 -0 -0 -15 -2 -4 -1 -0 -0 -0 -0 -0 -0 -68 -66 -192 -185 -198 -0 -0 -0 -0 -252 -0 -23 -204
-2 -4 -16 -0 -0 -0 -18 -4 -1 -1 -13 -1 -5 -0 -0 -0 -0 -15 -25 -27 -3 -0 -0 -0 -0 -0 -0 -0 -0 -0 -0 -0 -161 -129 -104 -171 -161 -168 -168 -6 -6 -174 -0 -0
-10 -12 -6 -0 -6 -13 -14 -0 -2 -0 -1 -0 -0 -0 -0 -0 -0 -26 -46 -14 -14 -1 -0 -2 -0 -0 -0 -0 -0 -0 -0 -0 -0 -0 -140 -134 -84 -107 -118 -119 -141 -151 -101 -0
-7 -0 -5 -0 -0 -2 -0 -2 -3 -5 -0 -0 -0 -21 -0 -0 -0 -38 -22 -12 -15 -0 -0 -5 -1 -0 -0 -0 -0 -0 -0 -0 -0 -0 -23 -120 -112 -124 -85 -95 -106 -139 -93 -0
-13 -2 -4 -0 -0 -0 -2 -0 -0 -12 -3 -0 -0 -10 -0 -0 -74 -45 -39 -8 -8 -0 -9 -1 -0 -0 -0 -0 -0 -0 -0 -0 -0 -0 -0 -0 -147 -146 -134 -82 -141 -151 -177 -0
-0 -0 -1 -1 -0 -13 -3 -1 -2 -5 -1 -6 -6 -14 -22 -33 -33 -38 -12 -25 -17 -2 -5 -0 -2 -65 -0 -0 -0 -153 -0 -0 -0 -0 -0 -0 -158 -143 -128 -111 -157 -149 -142 -182
-0 -2 -2 -0 -0 -0 -0 -2 -11 -4 -12 -10 -1 -9 -14 -8 -15 -33 -0 -5 -0 -0 -0 -14 -59 -96 -136 -128 -156 -0 -0 -131 -13 -0 -0 -0 -97 -138 -103 -112 -124 -142 -169 -219
-0 -1 -1 -0 -0 -0 -0 -0 -0 -18 -7 -8 -17 -5 -5 -5 -0 -11 -8 -4 -1 -4 -14 -21 -13 -41 -40 -46 -155 -155 -196 -118 -181 -0 -0 -0 -0 -0 -51 -35 -48 -164 -199 -172
-15 -0 -0 -0 -0 -0 -0 -0 -0 -21 -3 -2 -6 -5 -1 -0 -14 -0 -0 -10 -16 -27 -26 -47 -3 -60 -0 -99 -134 -134 -148 -165 -181 -220 -201 -0 -0 -0 -0 -0 -0 -0 -106 -212
Wind_Speed
33 34 35 36 37 39 29 23 20 16 18 17 15 15 13 15 20 22 19 17 15 17 20 23 23 23 19 9 5 6 12 14 15 16 16 16 16 18 19 22 20 19 20 23
32 33 33 34 35 34 27 25 18 16 15 19 18 17 15 15 19 18 19 17 18 20 21 23 22 26 24 11 8 7 9 17 14 16 17 16 14 15 16 17 18 24 24 22
32 32 32 33 34 33 22 22 21 18 17 17 18 20 19 18 18 16 19 21 22 25 27 24 25 24 23 16 15 10 10 14 16 15 23 19 17 17 15 17 18 18 22 21
31 31 32 33 33 32 21 21 19 18 20 18 20 19 19 20 20 19 22 18 17 22 27 27 27 28 24 17 10 13 14 16 16 17 15 16 18 19 18 19 17 19 20 15
29 30 31 32 33 29 20 20 20 20 21 21 21 20 19 21 21 21 23 23 26 25 27 26 26 23 21 19 16 16 18 17 16 20 20 21 22 22 22 20 18 20 18 19
28 29 30 30 31 26 20 19 18 18 19 20 22 21 20 19 28 25 25 26 30 34 33 28 29 36 39 33 22 18 19 16 19 24 22 22 27 21 20 20 19 16 18 16
26 27 28 28 27 24 20 19 19 19 20 20 20 22 26 30 25 28 31 34 34 27 30 37 34 27 29 25 25 20 15 15 18 19 17 27 22 20 18 16 15 14 15 12
28 29 26 26 25 24 21 19 18 19 21 21 25 22 22 27 28 29 30 34 36 34 31 30 35 23 22 22 19 20 17 15 18 18 20 22 18 15 14 15 18 14 15 17
27 28 27 24 24 23 21 20 16 18 21 20 18 23 28 29 26 28 23 29 28 23 24 26 33 32 27 23 19 16 15 17 18 17 21 23 20 15 14 15 24 16 14 14
26 26 25 26 24 22 21 19 16 18 21 22 18 19 23 21 24 27 28 25 22 19 23 29 32 41 24 23 22 20 19 21 20 19 21 23 18 12 12 19 25 13 7 12
25 26 25 23 24 21 20 20 17 18 21 27 14 29 26 26 25 23 24 25 18 22 23 26 26 31 34 28 23 20 18 20 24 21 23 25 9 9 15 20 19 15 11 13
26 25 25 22 24 20 18 20 19 20 22 23 32 37 10 9 13 24 22 23 24 21 23 23 24 21 25 27 26 21 22 19 20 20 23 18 2 15 14 17 19 18 16 14
27 26 24 22 21 22 18 20 25 26 27 32 23 22 24 20 9 7 26 23 21 21 18 25 24 29 22 25 26 20 20 14 17 15 17 16 10 16 18 18 18 16 14 15
26 26 23 22 22 24 19 20 21 23 24 25 23 20 30 22 16 5 9 14 17 22 25 26 28 24 23 26 23 20 17 12 13 20 15 19 17 15 15 15 14 14 16 17
26 26 22 22 22 24 22 21 20 14 17 22 32 32 18 18 7 8 3 8 27 27 27 29 29 27 27 27 22 21 14 20 21 22 12 15 13 10 11 12 13 12 13 11
25 26 22 20 23 22 21 20 17 10 9 20 23 22 20 21 17 6 3 8 16 22 24 26 26 22 26 27 24 16 16 19 21 21 9 15 12 9 11 10 12 9 9 8
26 23 19 20 19 17 15 16 14 16 17 18 22 20 19 17 11 12 9 6 15 16 21 23 26 27 27 30 33 23 18 18 20 16 5 12 9 13 10 10 8 8 9 10
25 20 19 17 17 16 19 18 17 10 17 18 19 20 19 16 16 13 13 16 16 20 21 23 25 27 27 36 36 30 22 20 21 10 16 8 7 9 8 6 7 7 8 7
22 21 18 16 13 14 14 19 13 10 14 17 18 20 19 19 16 15 13 13 18 17 20 21 22 26 29 27 26 27 28 24 22 20 16 4 6 5 5 8 8 7 7 6
21 15 14 14 13 14 14 16 14 14 15 18 23 20 24 20 17 15 14 16 16 18 21 13 24 31 37 40 34 30 24 19 18 16 10 6 6 2 7 13 9 8 9 10
13 12 12 15 19 13 13 15 14 16 18 18 19 20 23 20 20 18 17 16 17 19 19 19 21 26 31 40 41 35 29 28 23 24 26 14 5 10 9 4 7 8 8 10
13 16 16 16 15 15 15 14 15 17 18 16 18 19 19 19 17 17 17 17 17 19 18 20 23 26 30 35 41 39 33 30 30 26 26 23 16 10 15 4 6 8 9 11
14 14 14 12 13 16 15 16 17 18 18 17 18 17 16 16 15 16 16 16 18 18 19 20 23 25 24 23 27 30 26 26 28 31 26 23 12 7 7 3 5 1 4 9
13 13 15 10 13 18 18 18 20 21 21 22 20 19 17 16 15 15 15 14 17 18 17 18 19 20 20 23 26 25 25 25 28 22 25 20 11 9 8 10 5 3 4 6
13 13 15 12 20 21 21 19 19 20 24 22 20 18 18 18 16 15 14 12 14 15 16 18 17 18 20 19 21 30 29 29 29 31 22 19 16 7 17 17 10 9 10 6
14 14 16 21 22 23 20 19 21 19 19 17 19 15 15 17 15 13 9 12 13 16 15 15 18 20 18 18 18 20 27 31 30 26 24 26 20 14 19 20 17 15 11 11
17 15 11 24 23 25 23 20 19 19 17 16 16 17 18 14 16 16 17 17 18 17 17 16 18 16 16 14 15 13 12 14 17 17 18 18 21 22 19 18 21 18 15 13
Wind_Direction
345 344 342 341 339 336 354 351 343 3 7 347 342 325 322 317 308 306 301 294 293 291 291 285 278 273 278 294 267 221 267 288 282 274 279 285 285 274 268 268 273 279 283 282
347 346 345 343 343 349 353 344 348 1 357 333 331 334 331 325 317 310 301 292 288 287 283 281 278 272 278 265 261 252 259 270 276 276 277 282 294 290 286 282 279 270 277 283
346 346 346 344 344 346 359 348 339 345 349 345 333 325 318 315 323 316 306 289 283 283 274 275 275 274 276 264 266 266 256 269 268 274 278 275 276 282 288 283 281 285 284 292
345 346 345 344 343 346 357 350 344 346 335 331 330 328 318 313 311 309 301 294 288 284 270 270 269 272 270 261 255 259 270 266 272 281 289 280 277 278 282 286 293 292 296 300
345 345 344 345 342 346 354 345 344 341 331 327 323 319 316 310 309 305 296 288 281 278 267 267 266 273 265 251 256 257 263 265 276 282 285 285 284 282 281 284 290 294 300 299
342 343 344 343 343 350 350 347 344 339 334 330 324 318 316 310 304 298 289 286 279 267 269 265 268 265 253 252 258 256 263 268 277 278 289 289 281 283 285 285 287 294 296 306
340 342 343 343 345 349 349 343 338 333 324 324 322 319 311 300 302 294 285 277 273 270 278 272 263 267 258 257 256 264 262 269 279 286 294 283 292 291 290 295 296 302 310 321
336 337 340 341 340 342 341 340 338 331 322 322 316 319 317 301 298 292 288 275 271 269 272 266 247 264 256 247 253 255 258 268 282 284 285 294 299 298 300 296 294 309 311 313
332 331 333 337 335 336 337 335 338 330 324 324 327 316 306 300 303 295 297 288 280 268 265 256 238 245 256 244 247 257 257 270 276 282 285 285 299 300 305 310 297 306 308 313
335 333 330 327 332 334 335 332 331 327 321 319 323 318 309 315 306 294 293 295 278 269 262 251 240 235 262 245 236 241 251 264 265 276 283 287 302 317 318 302 303 325 326 328
336 334 331 329 327 331 333 329 329 323 318 311 274 294 300 299 297 297 292 292 278 265 258 253 249 246 248 264 249 234 245 258 262 275 279 284 332 327 305 312 316 326 332 334
333 331 330 329 324 332 335 329 326 320 315 309 301 277 249 280 301 295 294 282 276 269 262 260 254 254 250 253 244 252 254 262 262 271 277 296 13 311 314 319 318 322 328 340
325 325 330 328 328 325 331 326 311 308 312 310 311 307 306 301 202 219 280 283 275 263 278 262 261 250 260 257 257 253 261 270 273 283 286 287 308 311 315 317 319 332 342 340
326 327 331 327 326 320 329 325 321 313 316 314 315 321 291 303 296 281 182 273 285 277 273 266 255 257 255 260 265 265 264 268 264 278 289 287 298 307 321 329 336 345 344 331
327 326 330 326 324 321 322 318 316 324 322 314 297 285 310 304 310 295 260 276 271 274 267 258 255 256 252 261 270 264 269 260 261 273 282 294 315 314 328 330 335 354 354 348
327 324 331 330 324 326 328 327 334 350 343 318 300 310 296 299 312 336 321 298 291 277 261 259 255 259 247 250 255 278 280 270 274 274 282 299 328 355 335 340 346 9 9 25
321 330 339 333 333 334 329 324 341 338 320 314 298 296 301 311 331 325 342 338 309 278 259 260 257 254 257 250 245 267 279 286 270 276 294 297 324 320 348 346 44 48 24 47
320 334 335 343 341 342 322 316 262 344 316 314 297 286 288 310 294 309 304 287 289 265 261 265 261 260 254 249 248 260 275 287 272 266 278 314 9 2 358 28 45 38 44 35
320 326 339 347 2 358 356 313 325 342 313 304 289 273 263 294 297 300 301 301 286 278 267 266 266 252 247 251 259 250 254 263 266 257 272 346 3 11 36 63 73 49 36 37
317 352 360 2 23 7 357 330 327 316 306 294 271 280 255 279 282 295 301 287 292 283 269 285 259 254 240 228 243 245 249 261 260 250 268 286 290 5 90 111 91 69 64 61
358 4 7 345 319 5 353 327 318 297 281 279 270 259 248 263 261 281 290 303 290 284 279 276 276 267 251 220 220 233 245 247 258 257 253 262 127 120 111 87 87 77 74 80
347 333 338 333 339 342 327 328 303 269 259 273 265 265 268 259 271 285 291 290 298 287 287 282 281 282 264 238 222 218 235 242 238 248 251 251 257 152 141 103 106 100 92 95
343 345 340 356 350 311 314 285 261 252 230 224 287 268 274 274 286 291 305 300 285 302 292 290 291 281 274 254 242 242 250 250 248 233 249 255 254 180 161 168 280 305 91 108
351 340 319 15 340 284 270 263 251 250 262 271 270 261 264 277 284 308 315 318 312 301 293 292 289 283 275 259 251 249 254 255 253 261 251 261 261 195 233 259 267 253 156 141
332 338 325 340 272 252 243 241 244 254 261 246 243 256 259 261 277 302 313 349 323 301 297 279 266 272 266 282 268 252 254 253 250 246 252 254 261 253 254 261 271 262 270 237
321 324 324 280 255 246 255 252 252 258 261 252 237 267 269 255 290 310 23 322 296 257 259 271 284 284 281 271 278 275 263 254 252 256 251 249 257 265 261 264 272 276 263 252
299 320 338 236 245 245 250 259 265 278 277 267 268 262 262 300 285 285 258 268 262 263 254 262 300 290 317 284 268 285 297 275 262 256 255 257 256 258 264 269 273 279 275 262